Location: Newark
(50.4348°N, 30.5552°E)
Time: 13:26:46
(UTC+00:00)

Tiros 1 despin weight - All Passes

Search period start: 24 January 2020 00:00
Search period end: 03 February 2020 00:00
Orbit: 594 x 642 km, 48.2° (Epoch: 24 January)

Date Brightness Start Highest point End Pass type
(mag) Time Alt. Az. Time Alt. Az. Time Alt. Az.
24 Jan - 09:29:04 10° SSW 09:32:37 23° SE 09:36:13 10° E daylight
24 Jan - 11:09:09 10° WSW 11:13:36 54° SSE 11:18:08 10° E daylight
24 Jan - 12:50:25 10° W 12:54:59 66° S 12:59:37 10° ESE daylight
24 Jan - 14:31:57 10° W 14:36:14 38° SSW 14:40:34 10° SE daylight
24 Jan - 16:14:59 10° WSW 16:16:55 12° SW 16:18:52 10° SSW visible
25 Jan - 09:44:48 10° SW 09:48:53 34° SSE 09:53:02 10° E daylight
25 Jan - 11:25:33 10° WSW 11:30:04 64° S 11:34:40 10° E daylight
25 Jan - 13:06:56 10° W 13:11:28 58° SSW 13:16:03 10° ESE daylight
25 Jan - 14:48:41 10° W 14:52:32 26° SSW 14:56:25 10° SSE daylight
26 Jan - 08:21:27 10° S 08:24:25 17° SE 08:27:25 10° E daylight
26 Jan - 10:00:54 10° SW 10:05:14 47° SSE 10:09:40 10° E daylight
26 Jan - 11:42:02 10° W 11:46:34 68° S 11:51:11 10° E daylight
26 Jan - 13:23:29 10° W 13:27:53 45° SSW 13:32:20 10° SE daylight
26 Jan - 15:05:47 10° WSW 15:08:44 17° SW 15:11:42 10° S daylight
27 Jan - 08:36:49 10° SSW 08:40:36 27° SSE 08:44:27 10° E daylight
27 Jan - 10:17:12 10° WSW 10:21:41 59° SSE 10:26:13 10° E daylight
27 Jan - 11:58:32 10° W 12:03:04 63° S 12:07:40 10° ESE daylight
27 Jan - 13:40:08 10° W 13:44:15 32° SSW 13:48:24 10° SE daylight
28 Jan - 07:14:15 10° SSE 07:16:14 13° SE 07:18:14 10° ESE daylight
28 Jan - 08:52:43 10° SW 08:56:54 39° SSE 09:01:10 10° E daylight
28 Jan - 10:33:39 10° WSW 10:38:09 66° S 10:42:45 10° E daylight
28 Jan - 12:15:04 10° W 12:19:32 52° SSW 12:24:03 10° ESE daylight
28 Jan - 13:56:58 10° W 14:00:30 22° SW 14:04:03 10° SSE daylight
29 Jan - 07:29:01 10° SSW 07:32:22 21° SE 07:35:46 10° E daylight
29 Jan - 09:08:55 10° WSW 09:13:18 52° SSE 09:17:45 10° E daylight
29 Jan - 10:50:08 10° W 10:54:40 66° S 10:59:15 10° ESE daylight
29 Jan - 12:31:39 10° W 12:35:56 39° SSW 12:40:16 10° SE daylight
29 Jan - 14:14:24 10° WSW 14:16:39 13° SW 14:18:54 10° SSW daylight
30 Jan - 07:44:39 10° SW 07:48:36 31° SSE 07:52:38 10° E daylight
30 Jan - 09:25:18 10° WSW 09:29:45 63° S 09:34:18 10° E daylight
30 Jan - 11:06:40 10° W 11:11:09 59° SSW 11:15:41 10° ESE daylight
30 Jan - 12:48:21 10° W 12:52:14 27° SSW 12:56:10 10° SSE daylight
31 Jan - 06:21:29 10° S 06:24:10 16° SE 06:26:53 10° ESE daylight
31 Jan - 08:00:42 10° SW 08:04:57 44° SSE 08:09:17 10° E daylight
31 Jan - 09:41:46 10° W 09:46:15 67° S 09:50:48 10° E daylight
31 Jan - 11:23:12 10° W 11:27:35 47° SSW 11:32:01 10° SE daylight
31 Jan - 13:05:22 10° W 13:08:27 18° SW 13:11:34 10° S daylight
01 Feb - 06:36:43 10° SSW 06:40:21 25° SSE 06:44:02 10° E daylight
01 Feb - 08:16:58 10° WSW 08:21:22 57° SSE 08:25:51 10° E daylight
01 Feb - 09:58:16 10° W 10:02:45 64° S 10:07:18 10° ESE daylight
01 Feb - 11:39:49 10° W 11:43:56 34° SSW 11:48:07 10° SE daylight
01 Feb - 13:23:47 10° SW 13:24:33 10° SW 13:25:20 10° SW daylight
02 Feb - 05:14:34 10° SSE 05:16:00 11° SE 05:17:28 10° ESE daylight
02 Feb - 06:52:32 10° SW 06:56:38 36° SSE 07:00:47 10° E daylight
02 Feb - 08:33:23 10° WSW 08:37:50 65° S 08:42:23 10° E daylight
02 Feb - 10:14:47 10° W 10:19:13 54° SSW 10:23:42 10° ESE daylight
02 Feb - 11:56:38 10° W 12:00:13 23° SSW 12:03:51 10° SSE daylight
